Location: Mentone
(34.5413°N, 85.5351°W)
Time: 02:57:48
(UTC-05:00)

Amateur Radio Satellites - All Passes

Search period start: 17 August 2017 02:27
Search period end: 18 August 2017 02:27
Location: Mentone, 34.5413°N, 85.5351°W

Satellite Date Start Highest point End Downlink Frequencies (MHz)
Time Altitude Azimuth
BUGSAT 1 17 Aug 02:35:21 02:37:59 17° 291° (WNW) 02:40:37 437.445
YUBILEINY 17 Aug 02:37:02 02:44:18 29° 73° (ENE) 02:51:30 435.215
Oscar 19 17 Aug 03:09:23 03:13:47 28° 291° (WNW) 03:18:10 437.125/150
BEESAT 17 Aug 03:24:43 03:29:26 65° 258° (WSW) 03:34:09 436.000
Gurwin Techsat 1B 17 Aug 03:46:55 03:50:46 21° 294° (WNW) 03:54:36 435.225
MOZHAYETS 4 17 Aug 03:48:50 03:53:07 42° 261° (W) 03:57:27
CUBESAT XI-V 17 Aug 03:56:32 04:00:49 40° 73° (ENE) 04:05:11 437.345
ITUPSAT 1 17 Aug 03:56:41 04:00:49 30° 263° (W) 04:04:58 437.325
AO-7 17 Aug 04:05:49 04:14:06 65° 104° (ESE) 04:22:17 .
ITAMSAT 1 17 Aug 04:18:23 04:23:34 86° 103° (ESE) 04:28:45 435.822/435.867
KKS-1 17 Aug 04:32:19 04:36:35 45° 73° (ENE) 04:40:52 437.445
YUBILEINY 17 Aug 04:33:01 04:41:22 53° 270° (W) 04:49:42 435.215
BEESAT 3 17 Aug 05:18:21 05:21:36 24° 111° (ESE) 05:24:53 437.485
STARS 17 Aug 05:23:19 05:27:41 70° 76° (ENE) 05:32:05 437.465
CUBESAT XI-V 17 Aug 05:35:26 05:38:19 16° 267° (W) 05:41:14 437.345
DOVE 4 17 Aug 05:41:00 05:45:20 40° 98° (E) 05:49:24 437.250
AO-85 17 Aug 05:43:14 05:46:44 29° 113° (ESE) 05:50:10 145.980
XW-2F 17 Aug 05:55:50 05:58:07 15° 94° (E) 06:00:25 145.980 - 146.000
CUTE-I 17 Aug 05:57:01 06:00:30 18° 94° (E) 06:03:57 437.470
AO-7 17 Aug 05:59:43 06:06:10 26° 301° (WNW) 06:12:36 .
STRAND 1 17 Aug 06:00:57 06:02:43 12° 63° (ENE) 06:04:28 437.568
KKS-1 17 Aug 06:11:08 06:13:18 13° 267° (W) 06:15:29 437.445
HO-68 17 Aug 06:27:34 06:30:28 13° 91° (E) 06:33:22 435.675
KAITUO 1B 17 Aug 06:27:36 06:31:00 31° 97° (E) 06:34:23 145.475/437.950
LilacSat-2 17 Aug 06:33:12 06:37:00 56° 100° (E) 06:40:48 437.200
XW-2D 17 Aug 06:42:56 06:46:46 75° 101° (ESE) 06:50:36 145.860 - 145.880
XW-2B 17 Aug 06:53:51 06:57:41 81° 282° (WNW) 07:01:31 145.730 - 145.750
BEESAT 3 17 Aug 06:55:50 06:59:04 23° 307° (NW) 07:02:22 437.485
BEESAT 2 17 Aug 06:58:32 07:02:28 70° 299° (WNW) 07:06:31 435.950
NUDT-PHONESAT 17 Aug 07:06:43 07:10:28 75° 283° (WNW) 07:14:12 437.300
SEEDS 17 Aug 07:08:30 07:10:20 12° 92° (E) 07:12:11 437.485
XW-2C 17 Aug 07:12:51 07:16:29 42° 286° (WNW) 07:20:08 145.795 - 145.815
CUBEBUG 2 17 Aug 07:14:12 07:15:39 11° 93° (E) 07:17:06 437.445
DOVE 4 17 Aug 07:19:52 07:22:34 16° 294° (WNW) 07:25:12 437.250
AO-85 17 Aug 07:24:20 07:27:07 18° 308° (NW) 07:29:52 145.980
PCSat 17 Aug 07:28:38 07:29:56 11° 46° (NE) 07:31:14 145.827
XW-2F 17 Aug 07:28:56 07:32:14 28° 287° (WNW) 07:35:32 145.980 - 146.000
CUTE-I 17 Aug 07:35:38 07:40:43 47° 288° (WNW) 07:45:47 437.470
STRAND 1 17 Aug 07:36:07 07:41:13 73° 258° (WSW) 07:46:21 437.568
XW-2A 17 Aug 07:43:22 07:46:12 24° 97° (E) 07:49:02 145.665 - 145.685
CUTE 1.7 + AOD 2 17 Aug 07:45:46 07:50:02 63° 100° (E) 07:54:16 437.475
FO-29 17 Aug 08:02:24 08:08:05 23° 65° (ENE) 08:13:27 435.910
KAITUO 1B 17 Aug 08:02:37 08:04:41 14° 291° (WNW) 08:06:45 145.475/437.950
ZACube-1 17 Aug 08:04:54 08:07:14 14° 94° (E) 08:09:35 437.345
AAUSAT CUBESAT 2 17 Aug 08:05:36 08:09:08 26° 96° (E) 08:12:39 437.432
HO-68 17 Aug 08:11:43 08:18:55 89° 278° (W) 08:26:05 435.675
AO-73 17 Aug 08:27:44 08:31:13 24° 96° (E) 08:34:44 145.935
SEEDS 17 Aug 08:42:09 08:46:12 43° 286° (WNW) 08:50:12 437.485
SO-50 17 Aug 08:46:50 08:51:00 34° 55° (NE) 08:55:11 436.795
CUBEBUG 2 17 Aug 08:48:27 08:52:26 45° 285° (WNW) 08:56:30 437.445
UWE-3 17 Aug 08:49:58 08:54:12 81° 283° (WNW) 08:58:31 435.000/436.395/437.385
PRISM 17 Aug 08:59:25 09:01:06 12° 66° (ENE) 09:02:49 437.425
NO-84 17 Aug 09:02:44 09:03:56 12° 36° (NE) 09:05:09 435.350 FM
PCSat 17 Aug 09:08:45 09:14:11 79° 63° (ENE) 09:19:35 145.827
UNISAT 6 17 Aug 09:09:44 09:13:17 24° 71° (ENE) 09:16:47 437.425
XW-2A 17 Aug 09:16:57 09:18:40 13° 290° (WNW) 09:20:25 145.665 - 145.685
Oscar 11 17 Aug 09:17:21 09:21:43 70° 102° (ESE) 09:26:02 .
O/OREOS (USA 219) 17 Aug 09:18:44 09:21:43 18° 100° (E) 09:24:43 437.305
ZACube-1 17 Aug 09:39:39 09:43:36 38° 287° (WNW) 09:47:38 437.345
AAUSAT CUBESAT 2 17 Aug 09:41:18 09:44:23 20° 290° (WNW) 09:47:28 437.432
FO-29 17 Aug 09:44:47 09:52:32 66° 258° (WSW) 09:59:48 435.910
TIGRISAT 17 Aug 09:45:12 09:49:32 59° 75° (ENE) 09:53:47 435.000
DELFI C3 17 Aug 09:49:52 09:53:31 34° 98° (E) 09:57:08 145.870
EO-88 17 Aug 09:59:44 10:02:48 24° 97° (E) 10:05:50 145.990 - 145.960
HO-68 17 Aug 10:01:58 10:05:38 15° 302° (WNW) 10:09:17 435.675
AO-73 17 Aug 10:03:56 10:07:19 23° 289° (WNW) 10:10:46 145.935
RS-15 17 Aug 10:17:44 10:27:33 30° 103° (ESE) 10:37:28 29.354- 29.394
M-CUBED/EXP-1 PRIME 17 Aug 10:18:39 10:22:09 24° 64° (ENE) 10:25:48 437.505
ISS 17 Aug 10:23:13 10:25:49 22° 130° (SE) 10:28:27 437.550
Tancredo 1 17 Aug 10:24:14 10:27:08 64° 320° (NW) 10:30:02 437.200
SO-50 17 Aug 10:27:44 10:31:13 22° 249° (WSW) 10:34:44 436.795
Max Valier Satellite 17 Aug 10:29:26 10:33:08 89° 262° (W) 10:36:51 145.860
PRISM 17 Aug 10:31:57 10:35:55 46° 260° (W) 10:39:56 437.425
nSIGHT-1 17 Aug 10:36:30 10:39:29 34° 132° (SE) 10:42:28 .
NO-84 17 Aug 10:38:18 10:41:33 64° 230° (SW) 10:45:06 435.350 FM
POLYITAN 1 17 Aug 10:39:11 10:40:05 11° 66° (ENE) 10:41:00 437.675
UNISAT 6 17 Aug 10:46:20 10:49:53 24° 264° (W) 10:53:23 437.425
QB50P2 17 Aug 10:51:58 10:54:46 18° 69° (ENE) 10:57:34 145.880/145.840
EO-79 17 Aug 10:54:19 10:57:01 17° 68° (ENE) 10:59:42 145.935-145.965
PCSat 17 Aug 10:55:44 10:56:49 11° 258° (WSW) 10:57:53 145.827
O/OREOS (USA 219) 17 Aug 10:56:47 11:00:49 33° 295° (WNW) 11:04:52 437.305
ESTCUBE 1 17 Aug 11:16:31 11:19:44 19° 95° (E) 11:22:57 437.505/2401.250
DELFI C3 17 Aug 11:25:47 11:27:57 14° 292° (WNW) 11:30:06 145.870
AIST 2D 17 Aug 11:26:31 11:29:58 68° 259° (W) 11:33:26 435.315
DUCHIFAT 1 17 Aug 11:28:16 11:32:00 32° 72° (ENE) 11:35:45 145.980
EO-88 17 Aug 11:33:54 11:36:13 16° 290° (WNW) 11:38:33 145.990 - 145.960
LO-87 17 Aug 11:42:52 11:46:23 67° 101° (ESE) 11:49:53 145.935 - 145.965
BUGSAT 1 17 Aug 11:46:56 11:49:00 14° 67° (ENE) 11:51:03 437.445
M-CUBED/EXP-1 PRIME 17 Aug 11:52:36 11:56:21 28° 260° (W) 12:00:17 437.505
ISS 17 Aug 11:59:19 12:02:12 28° 324° (NW) 12:05:05 437.550
NANOSAT C BR1 17 Aug 12:10:28 12:14:38 63° 259° (W) 12:18:47 145.865
POLYITAN 1 17 Aug 12:11:14 12:15:21 54° 260° (W) 12:19:29 437.675
nSIGHT-1 17 Aug 12:13:24 12:15:56 20° 327° (NNW) 12:18:27 .
SPROUT 17 Aug 12:20:31 12:23:52 22° 96° (E) 12:27:12 437.525
QB50P2 17 Aug 12:26:31 12:30:16 31° 262° (W) 12:34:03 145.880/145.840
RS-15 17 Aug 12:26:49 12:38:58 71° 302° (WNW) 12:51:22 29.354- 29.394
EO-79 17 Aug 12:28:40 12:32:28 33° 262° (W) 12:36:17 145.935-145.965
Oscar 19 17 Aug 12:43:35 12:48:00 30° 69° (ENE) 12:52:26 437.125/150
JUGNU 17 Aug 12:46:52 12:50:34 17° 173° (S) 12:54:14 437.505
ESTCUBE 1 17 Aug 12:52:29 12:56:33 33° 288° (WNW) 13:00:36 437.505/2401.250
DUCHIFAT 1 17 Aug 13:05:05 13:07:42 16° 266° (W) 13:10:20 145.980
50 SAT 17 Aug 13:12:01 13:14:44 22° 97° (E) 13:17:26 437.505
AO-7 17 Aug 13:14:50 13:17:36 12° 50° (NE) 13:20:23 .
VELOX 1 17 Aug 13:16:44 13:21:11 86° 105° (ESE) 13:25:34 145.980
BUGSAT 1 17 Aug 13:20:06 13:23:59 39° 261° (W) 13:27:50 437.445
UKube-1 17 Aug 13:20:08 13:22:26 14° 94° (E) 13:24:42 .
Gurwin Techsat 1B 17 Aug 13:23:38 13:28:43 48° 72° (ENE) 13:33:50 435.225
DX 1 17 Aug 13:31:56 13:35:50 31° 98° (E) 13:39:40 434.975-435.025
SPROUT 17 Aug 13:56:14 13:59:39 24° 290° (WNW) 14:03:03 437.525
AO-85 17 Aug 14:18:03 14:19:59 13° 49° (NE) 14:21:58 145.980
Oscar 19 17 Aug 14:22:56 14:27:14 27° 264° (W) 14:31:33 437.125/150
JUGNU 17 Aug 14:34:57 14:38:52 18° 183° (S) 14:42:46 437.505
SRMSAT 17 Aug 14:39:27 14:42:20 14° 168° (SSE) 14:45:13 437.500
RS-15 17 Aug 14:45:12 14:54:12 22° 328° (NNW) 15:03:13 29.354- 29.394
50 SAT 17 Aug 14:45:16 14:47:11 14° 290° (WNW) 14:49:06 437.505
UKube-1 17 Aug 14:54:33 14:58:34 40° 287° (WNW) 15:02:35 .
AO-7 17 Aug 15:00:31 15:08:45 65° 69° (ENE) 15:17:00 .
Gurwin Techsat 1B 17 Aug 15:05:26 15:08:52 17° 266° (W) 15:12:18 435.225
DX 1 17 Aug 15:08:42 15:11:44 19° 292° (WNW) 15:14:45 434.975-435.025
BEESAT 3 17 Aug 15:14:50 15:18:47 63° 61° (ENE) 15:22:38 437.485
BEESAT 2 17 Aug 15:19:51 15:23:05 22° 53° (NE) 15:26:17 435.950
BEESAT 17 Aug 15:28:19 15:32:48 41° 99° (E) 15:37:18 436.000
ITAMSAT 1 17 Aug 15:32:40 15:37:53 89° 250° (WSW) 15:43:07 435.822/435.867
YUBILEINY 17 Aug 15:33:17 15:41:07 37° 87° (E) 15:48:54 435.215
MOZHAYETS 4 17 Aug 15:46:51 15:51:24 56° 100° (E) 15:55:56
AO-85 17 Aug 15:56:19 16:00:42 67° 243° (WSW) 16:05:24 145.980
CUBESAT XI-V 17 Aug 15:58:08 16:00:22 13° 92° (E) 16:02:35 437.345
ITUPSAT 1 17 Aug 15:59:44 16:04:32 90° 283° (WNW) 16:09:19 437.325
JUGNU 17 Aug 16:24:41 16:27:07 13° 193° (SSW) 16:29:34 437.505
SRMSAT 17 Aug 16:26:45 16:30:46 19° 178° (S) 16:34:48 437.500
KKS-1 17 Aug 16:29:08 16:30:24 11° 92° (E) 16:31:39 437.445
DOVE 4 17 Aug 16:41:51 16:46:30 32° 71° (ENE) 16:51:06 437.250
Tancredo 1 17 Aug 16:50:11 16:52:29 21° 35° (NE) 16:54:46 437.200
AO-7 17 Aug 16:55:33 17:01:55 24° 264° (W) 17:08:20 .
BEESAT 2 17 Aug 16:57:24 17:00:46 26° 248° (WSW) 17:04:05 435.950
BEESAT 17 Aug 17:07:06 17:10:14 18° 293° (WNW) 17:13:21 436.000
nSIGHT-1 17 Aug 17:07:45 17:09:09 12° 27° (NNE) 17:10:34 .
RS-15 17 Aug 17:08:47 17:13:49 13° 5° (N) 17:18:49 29.354- 29.394
LilacSat-2 17 Aug 17:12:39 17:15:05 17° 70° (ENE) 17:17:31 437.200
CUTE-I 17 Aug 17:15:19 17:19:18 22° 67° (ENE) 17:23:19 437.470
STARS 17 Aug 17:17:20 17:20:02 16° 94° (E) 17:22:43 437.465
XW-2D 17 Aug 17:21:20 17:24:08 20° 71° (ENE) 17:26:57 145.860 - 145.880
MOZHAYETS 4 17 Aug 17:26:09 17:28:01 12° 295° (WNW) 17:29:52
YUBILEINY 17 Aug 17:29:32 17:37:42 41° 284° (WNW) 17:45:52 435.215
XW-2B 17 Aug 17:31:51 17:35:01 26° 72° (ENE) 17:38:11 145.730 - 145.750
CUBESAT XI-V 17 Aug 17:33:24 17:37:57 50° 286° (WNW) 17:42:30 437.345
NUDT-PHONESAT 17 Aug 17:42:41 17:45:44 26° 73° (ENE) 17:48:50 437.300
XW-2C 17 Aug 17:50:12 17:53:48 48° 75° (ENE) 17:57:26 145.795 - 145.815
KKS-1 17 Aug 18:02:54 18:07:12 53° 286° (WNW) 18:11:29 437.445
XW-2F 17 Aug 18:05:27 18:09:09 76° 77° (ENE) 18:12:53 145.980 - 146.000
SRMSAT 17 Aug 18:15:36 18:19:14 17° 188° (S) 18:22:53 437.500
DOVE 4 17 Aug 18:19:37 18:24:04 27° 265° (W) 18:28:31 437.250
Tancredo 1 17 Aug 18:25:16 18:27:39 24° 230° (SW) 18:30:03 437.200
ISS 17 Aug 18:29:25 18:32:39 62° 42° (NE) 18:35:52 437.550
CUTE 1.7 + AOD 2 17 Aug 18:35:07 18:38:40 27° 71° (ENE) 18:42:16 437.475
HO-68 17 Aug 18:36:17 18:43:03 48° 69° (ENE) 18:49:50 435.675
KAITUO 1B 17 Aug 18:37:20 18:40:54 48° 261° (W) 18:44:30 145.475/437.950
nSIGHT-1 17 Aug 18:42:41 18:45:55 83° 224° (SW) 18:49:07 .
LilacSat-2 17 Aug 18:45:58 18:49:07 25° 264° (W) 18:52:19 437.200
STARS 17 Aug 18:52:28 18:56:27 36° 288° (WNW) 19:00:25 437.465
CUTE-I 17 Aug 18:54:00 18:59:02 41° 261° (W) 19:04:05 437.470
AAUSAT CUBESAT 2 17 Aug 18:54:08 18:55:34 12° 66° (ENE) 18:56:59 437.432
XW-2D 17 Aug 18:55:22 18:58:11 20° 265° (W) 19:01:01 145.860 - 145.880
XW-2B 17 Aug 19:06:55 19:09:11 15° 266° (W) 19:11:27 145.730 - 145.750
NUDT-PHONESAT 17 Aug 19:17:29 19:19:37 15° 266° (W) 19:21:46 437.300
AO-73 17 Aug 19:21:44 19:23:17 12° 67° (ENE) 19:24:50 145.935
RS-15 17 Aug 19:22:17 19:32:26 30° 40° (NE) 19:42:07 29.354- 29.394
SEEDS 17 Aug 19:29:33 19:33:43 78° 76° (ENE) 19:37:56 437.485
O/OREOS (USA 219) 17 Aug 19:31:15 19:34:41 21° 62° (ENE) 19:38:06 437.305
CUBEBUG 2 17 Aug 19:42:25 19:46:49 89° 282° (WNW) 19:51:04 437.445
XW-2A 17 Aug 19:42:55 19:46:13 75° 258° (WSW) 19:49:33 145.665 - 145.685
UWE-3 17 Aug 19:43:18 19:47:25 49° 75° (ENE) 19:51:27 435.000/436.395/437.385
STRAND 1 17 Aug 19:50:12 19:55:09 51° 100° (E) 20:00:05 437.568
Oscar 11 17 Aug 20:08:41 20:12:30 33° 72° (ENE) 20:16:22 .
CUTE 1.7 + AOD 2 17 Aug 20:11:23 20:14:28 20° 266° (W) 20:17:34 437.475
HO-68 17 Aug 20:24:58 20:30:53 28° 264° (W) 20:36:51 435.675
AAUSAT CUBESAT 2 17 Aug 20:26:32 20:30:32 48° 261° (W) 20:34:34 437.432
ZACube-1 17 Aug 20:31:23 20:35:34 81° 258° (WSW) 20:39:44 437.345
DELFI C3 17 Aug 20:33:18 20:35:08 13° 67° (ENE) 20:36:57 145.870
AO-73 17 Aug 20:55:05 20:59:05 45° 261° (W) 21:03:04 145.935
FO-29 17 Aug 21:01:12 21:04:41 17° 92° (E) 21:08:01 435.910
Max Valier Satellite 17 Aug 21:05:18 21:08:09 22° 72° (ENE) 21:10:59 145.860
O/OREOS (USA 219) 17 Aug 21:10:04 21:14:05 31° 256° (WSW) 21:18:06 437.305
UWE-3 17 Aug 21:23:13 21:24:04 10° 268° (W) 21:24:55 435.000/436.395/437.385
STRAND 1 17 Aug 21:30:48 21:33:52 16° 295° (WNW) 21:36:56 437.568
RS-15 17 Aug 21:34:23 21:46:21 83° 244° (WSW) 21:57:39 29.354- 29.394
TIGRISAT 17 Aug 21:41:13 21:43:46 15° 94° (E) 21:46:20 435.000
Oscar 11 17 Aug 21:45:53 21:48:40 17° 266° (W) 21:51:29 .
DELFI C3 17 Aug 22:05:45 22:09:29 39° 262° (W) 22:13:15 145.870
PCSat 17 Aug 22:05:50 22:09:07 16° 104° (ESE) 22:12:25 145.827
EO-88 17 Aug 22:06:34 22:10:09 65° 259° (W) 22:13:46 145.990 - 145.960
ESTCUBE 1 17 Aug 22:14:13 22:15:53 12° 65° (ENE) 22:17:34 437.505/2401.250
LO-87 17 Aug 22:16:29 22:18:41 16° 70° (ENE) 22:20:53 145.935 - 145.965
PRISM 17 Aug 22:16:49 22:20:25 29° 97° (E) 22:24:00 437.425
Max Valier Satellite 17 Aug 22:39:23 22:41:54 18° 265° (W) 22:44:24 145.860
UNISAT 6 17 Aug 22:40:06 22:44:25 89° 86° (E) 22:48:48 437.425
FO-29 17 Aug 22:44:47 22:50:09 46° 289° (WNW) 22:55:07 435.910
AIST 2D 17 Aug 22:57:00 22:57:58 11° 93° (E) 22:58:56 435.315
SO-50 17 Aug 22:58:14 23:01:50 24° 111° (ESE) 23:05:25 436.795
SPROUT 17 Aug 23:12:12 23:13:41 12° 66° (ENE) 23:15:12 437.525
TIGRISAT 17 Aug 23:16:36 23:20:32 36° 287° (WNW) 23:24:31 435.000
M-CUBED/EXP-1 PRIME 17 Aug 23:34:38 23:38:22 27° 100° (E) 23:41:51 437.505
PCSat 17 Aug 23:46:42 23:51:59 55° 299° (WNW) 23:57:19 145.827
ESTCUBE 1 17 Aug 23:47:45 23:52:09 56° 260° (W) 23:56:35 437.505/2401.250
LO-87 17 Aug 23:48:53 23:51:52 24° 263° (W) 23:54:52 145.935 - 145.965
RS-15 17 Aug 23:50:38 23:56:44 16° 263° (W) 00:02:44 29.354- 29.394
PRISM 17 Aug 23:52:37 23:55:27 18° 292° (WNW) 23:58:15 437.425
NANOSAT C BR1 17 Aug 23:58:31 00:02:01 25° 97° (E) 00:05:29 145.865
POLYITAN 1 17 Aug 23:59:36 00:03:17 29° 97° (E) 00:06:59 437.675
VELOX 1 18 Aug 00:10:07 00:14:23 47° 74° (ENE) 00:18:41 145.980
QB50P2 18 Aug 00:14:10 00:18:16 50° 100° (E) 00:22:22 145.880/145.840
EO-79 18 Aug 00:16:12 00:20:16 47° 100° (E) 00:24:19 145.935-145.965
DX 1 18 Aug 00:24:38 00:27:40 19° 68° (ENE) 00:30:42 434.975-435.025
AIST 2D 18 Aug 00:28:02 00:31:14 32° 286° (WNW) 00:34:26 435.315
SO-50 18 Aug 00:38:08 00:42:07 30° 306° (NW) 00:46:06 436.795
SPROUT 18 Aug 00:44:57 00:49:06 50° 260° (W) 00:53:16 437.525
DUCHIFAT 1 18 Aug 00:50:29 00:54:40 81° 282° (WNW) 00:58:50 145.980
Oscar 19 18 Aug 00:59:57 01:02:31 14° 92° (E) 01:05:04 437.125/150
BUGSAT 1 18 Aug 01:05:04 01:08:44 34° 98° (E) 01:12:23 437.445
M-CUBED/EXP-1 PRIME 18 Aug 01:09:10 01:12:34 22° 296° (WNW) 01:15:47 437.505
50 SAT 18 Aug 01:11:06 01:14:30 79° 258° (WSW) 01:17:56 437.505
NANOSAT C BR1 18 Aug 01:34:23 01:37:32 21° 290° (WNW) 01:40:42 145.865
POLYITAN 1 18 Aug 01:35:55 01:38:50 19° 291° (WNW) 01:41:45 437.675
Gurwin Techsat 1B 18 Aug 01:43:54 01:48:15 25° 96° (E) 01:52:35 435.225
UKube-1 18 Aug 01:44:45 01:49:03 78° 258° (WSW) 01:53:24 .
VELOX 1 18 Aug 01:49:03 01:51:02 13° 267° (W) 01:53:01 145.980
YUBILEINY 18 Aug 01:49:50 01:53:55 14° 65° (ENE) 01:57:58 435.215
QB50P2 18 Aug 01:52:14 01:53:34 11° 294° (WNW) 01:54:55 145.880/145.840
NO-84 18 Aug 01:52:32 01:55:27 64° 131° (SE) 01:58:16 435.350 FM
EO-79 18 Aug 01:54:00 01:55:34 12° 294° (WNW) 01:57:08 145.935-145.965
DX 1 18 Aug 01:59:38 02:03:34 32° 262° (W) 02:07:31 434.975-435.025
